GFSNE_con_lsi_273.txt.gz
Lid_Strength_Index
4 6 6 8 9 8 10 11 12 16 17 18 18 16 16 15 14 15 15 12 12 12 13 13 14 14 14 13 13 12 12 11 11 10 9 8 8 8
5 6 7 8 9 9 11 10 9 10 13 16 16 16 16 16 15 16 15 14 13 13 13 14 14 14 14 13 13 13 12 11 11 10 9 9 9 8
6 7 9 9 10 9 10 10 9 10 11 17 16 16 16 16 17 17 15 16 15 14 14 14 14 14 14 14 14 13 12 12 12 11 10 10 9 8
12 11 14 12 13 13 12 13 15 15 16 18 18 18 17 16 18 18 17 17 17 15 14 14 15 14 14 14 14 14 13 13 12 12 11 10 9 9
13 13 14 14 15 15 15 15 15 15 15 17 19 17 17 18 19 19 19 20 19 17 15 15 15 14 15 14 14 14 13 13 13 12 11 11 11 10
15 14 15 14 14 15 15 15 16 16 16 17 19 20 19 19 19 21 22 21 20 19 18 18 17 16 15 15 15 14 15 14 13 12 12 12 12 12
15 15 15 15 14 14 15 16 16 17 18 19 21 21 21 22 21 21 22 22 22 21 21 21 21 21 20 17 16 16 15 13 13 13 13 13 13 13
16 16 15 15 14 14 14 14 15 17 19 19 20 21 21 20 21 21 22 23 24 22 23 22 21 20 20 20 17 15 14 14 14 14 14 14 13 13
16 16 16 16 16 15 14 14 15 14 16 18 19 20 21 20 20 22 22 23 23 22 22 23 22 22 20 19 16 16 15 14 14 15 14 14 14 14
17 17 18 18 17 18 18 19 19 19 18 17 18 20 19 20 20 20 21 23 24 23 22 26 25 25 22 22 18 17 16 15 15 15 15 15 14 14
17 18 18 17 16 17 19 20 21 20 17 16 16 16 16 17 18 21 28 26 29 25 22 24 24 25 25 26 23 19 16 16 16 16 16 15 15 14
18 18 17 17 17 17 20 20 21 21 20 20 19 17 17 17 17 20 23 27 30 29 24 26 28 28 28 28 26 24 22 19 17 17 16 16 15 18
19 19 18 16 16 17 18 20 20 19 19 22 22 22 22 22 22 22 22 24 30 30 24 26 31 31 33 31 27 26 24 23 23 22 19 18 17 16
20 19 18 16 16 17 18 16 17 20 23 24 24 25 24 25 25 25 25 26 25 25 23 26 32 30 35 36 31 27 26 25 24 24 23 20 18 17
18 16 15 15 15 15 14 16 22 24 25 26 27 28 27 26 27 30 30 29 29 28 26 29 28 29 30 33 33 29 26 29 27 25 24 24 24 23
16 19 17 17 16 17 19 22 25 26 27 28 30 31 30 31 31 30 31 31 32 32 28 29 28 28 32 29 28 27 26 30 30 28 25 24 23 22
23 25 25 26 25 25 28 29 29 29 29 32 32 32 32 31 30 31 31 33 33 32 31 30 29 29 28 29 33 26 26 27 25 25 27 26 24 22
27 29 29 28 27 29 30 31 32 32 32 32 34 32 31 30 30 32 32 33 33 32 30 29 30 34 34 31 23 26 25 26 25 27 28 26 25 24
30 31 29 28 30 30 30 31 31 31 33 31 31 31 32 33 32 33 32 32 33 30 29 27 31 33 38 36 28 17 24 24 31 31 25 25 25 23
32 31 30 30 30 30 31 31 32 34 33 31 32 32 32 33 35 33 31 32 33 33 31 29 28 29 31 31 32 26 19 24 30 25 24 22 21 16
31 32 32 31 30 30 30 30 30 30 31 33 32 31 31 32 32 30 28 28 29 30 29 27 26 23 24 27 30 31 26 19 20 23 22 23 24 25
27 27 27 29 29 29 30 30 32 33 31 31 29 28 28 28 28 28 27 27 27 27 26 25 24 24 26 27 27 28 27 24 22 19 16 16 20 23
25 25 26 26 27 27 28 28 29 27 28 28 27 26 26 28 26 26 26 26 25 26 25 25 25 25 25 26 26 26 26 27 32 26 24 15 13 12

GFSNE_con_lsi_276.txt.gz
Lid_Strength_Index
4 4 4 4 6 6 6 8 9 16 16 17 17 16 15 13 12 12 11 10 10 10 10 11 11 12 12 12 12 11 11 11 11 11 10 10 10 9
3 4 5 5 6 7 7 8 7 8 13 16 16 16 15 15 14 14 13 12 11 11 11 11 12 12 12 13 12 12 11 12 12 11 11 11 10 10
3 5 6 7 7 8 8 9 8 8 10 17 15 16 16 16 16 15 15 15 14 12 12 12 12 13 13 13 13 13 13 13 13 12 12 12 11 9
6 7 10 9 10 10 10 11 9 12 14 16 16 17 16 16 16 16 16 16 16 14 13 13 13 13 13 14 14 14 14 14 14 13 13 12 10 9
7 7 11 10 12 13 14 14 15 15 16 17 19 17 17 18 18 18 19 19 17 14 13 13 14 14 14 14 14 14 15 15 15 14 13 11 11 10
10 11 12 12 13 14 14 14 15 15 15 16 18 18 19 19 18 20 21 20 20 18 17 17 15 15 14 14 14 15 16 15 14 13 12 12 12 12
11 12 11 12 12 13 13 14 15 15 16 18 19 20 21 21 20 20 21 22 22 21 21 21 20 20 20 16 18 17 16 14 13 13 13 13 13 13
12 12 12 14 13 13 13 13 13 16 17 18 20 21 21 20 20 21 22 23 23 22 22 23 22 22 22 22 18 16 15 14 13 13 14 14 14 13
13 13 14 15 14 15 14 14 14 14 15 17 19 20 20 20 19 21 21 22 24 23 23 24 23 23 21 19 16 15 15 14 14 14 15 15 14 14
14 14 15 15 16 17 18 18 18 17 17 17 17 18 18 19 19 19 21 25 25 24 23 25 24 24 23 22 17 16 16 15 14 15 16 15 15 15
16 15 15 16 15 16 19 19 19 18 16 16 16 16 16 16 19 21 23 23 27 24 22 23 25 26 26 26 23 19 16 15 15 16 16 16 16 16
16 16 15 16 16 16 18 19 20 20 19 18 18 17 17 16 16 18 20 25 28 28 25 26 28 28 28 28 26 24 23 20 18 18 18 17 17 20
18 18 17 16 16 17 18 20 21 20 20 22 22 22 22 22 22 22 22 24 30 30 24 27 32 31 33 31 28 27 25 25 25 23 21 20 18 17
19 18 18 16 16 16 17 17 18 21 22 22 22 24 24 25 25 25 26 26 25 25 22 27 31 30 34 35 30 29 28 26 27 26 25 22 19 18
18 17 16 15 15 16 16 18 21 23 23 24 25 26 26 26 28 30 29 28 27 26 26 29 28 30 31 33 32 31 28 29 26 27 26 25 25 23
18 18 16 16 17 20 22 23 24 25 25 26 29 30 30 30 30 29 29 29 30 30 28 29 28 28 32 31 30 31 30 31 31 29 27 26 24 23
22 23 24 25 24 26 27 28 28 27 28 31 31 31 30 30 30 30 30 33 33 32 32 30 30 30 29 30 34 29 28 29 28 27 30 28 25 23
25 28 28 27 26 28 28 30 31 31 31 31 33 31 31 30 31 32 32 33 33 34 33 32 33 34 34 31 25 28 27 29 28 30 29 30 27 26
28 30 29 29 30 30 30 31 31 32 34 32 32 31 32 33 32 33 32 32 34 33 33 33 35 36 39 36 30 20 26 28 32 33 29 29 27 25
31 31 31 32 32 31 32 32 33 35 33 32 32 33 32 33 35 34 32 33 34 34 33 30 31 32 34 33 34 27 20 28 33 32 28 26 24 18
32 32 32 30 30 31 30 31 32 32 33 34 33 32 32 33 33 32 31 30 32 33 31 28 27 25 29 32 33 32 27 21 22 26 28 26 26 32
29 28 29 30 30 30 31 31 32 33 32 32 31 31 30 30 30 29 29 29 29 28 28 27 26 27 29 29 30 32 32 28 25 21 18 18 22 26
27 27 27 27 28 28 29 30 30 29 30 28 27 28 27 28 26 25 26 26 26 27 27 28 26 27 28 28 29 32 32 33 34 29 27 16 14 13

GFSNE_con_lsi_279.txt.gz
Lid_Strength_Index
4 4 7 7 4 4 5 6 7 13 14 16 17 15 14 13 11 9 6 7 5 6 6 7 8 8 9 9 9 9 9 10 10 10 10 10 10 10
6 4 5 6 4 3 5 4 6 6 10 15 16 16 15 15 12 13 10 9 8 8 8 8 9 9 10 10 10 10 10 10 11 11 11 11 11 11
6 5 4 2 4 5 6 8 7 6 9 16 16 16 15 15 15 14 11 11 10 9 9 10 10 10 10 10 11 11 11 11 12 12 12 12 12 12
8 7 5 3 5 6 7 9 7 8 14 16 17 17 16 16 16 16 16 14 12 11 10 11 11 11 11 11 12 12 12 13 13 13 13 13 13 11
9 8 6 4 6 6 6 10 11 14 14 15 16 16 17 16 17 18 17 16 16 13 12 12 12 12 12 12 13 13 14 14 14 14 14 14 13 12
10 9 8 6 6 7 8 11 13 14 15 16 16 18 17 16 17 20 20 18 18 16 15 15 14 13 13 13 13 14 15 15 15 15 14 13 12 12
10 9 9 9 9 8 10 11 13 14 15 16 18 18 19 19 19 19 21 21 22 20 19 19 18 17 15 14 15 15 15 15 15 14 13 12 13 13
12 12 12 11 9 10 10 10 11 14 16 16 18 18 19 18 18 20 22 22 22 21 21 22 20 20 20 20 17 16 16 15 14 13 13 13 14 14
12 12 12 11 10 10 11 11 12 12 13 16 18 18 19 19 20 21 20 20 22 22 21 23 23 22 21 20 17 15 15 14 14 13 13 14 14 14
13 13 12 13 13 13 14 16 16 16 16 16 16 18 18 18 19 19 20 24 24 23 23 23 24 22 21 20 16 15 14 15 14 14 14 15 15 15
14 14 14 14 13 13 17 18 18 17 15 15 16 16 15 16 19 21 22 22 25 24 23 22 23 22 22 21 21 18 16 15 14 14 15 15 16 15
15 14 14 14 14 14 17 18 19 18 18 18 18 17 17 18 17 18 19 21 24 22 21 22 23 22 22 24 23 22 20 19 17 17 17 17 17 17
17 17 15 14 14 15 17 18 19 19 20 22 22 23 23 22 22 21 20 20 21 22 22 23 25 25 24 23 23 23 22 21 21 21 20 19 18 18
17 17 16 15 15 16 17 17 18 20 21 22 22 22 22 23 24 23 23 23 22 21 20 23 24 23 23 24 21 24 23 22 22 22 22 22 20 19
16 15 15 15 16 16 17 18 20 20 20 22 23 24 24 25 25 25 25 24 24 24 24 24 23 25 23 22 22 24 22 23 23 23 23 23 23 22
16 18 18 17 18 21 21 21 21 21 21 23 24 25 25 24 25 24 24 24 24 24 25 24 24 23 24 24 24 24 24 23 24 24 23 23 22 22
20 20 21 22 23 24 24 25 24 23 24 25 25 25 25 25 25 25 25 25 24 24 24 25 26 25 24 25 25 24 24 25 24 24 25 24 23 22
22 22 23 23 24 24 25 26 26 26 26 25 25 25 25 24 25 25 25 24 24 25 25 25 26 25 25 25 23 24 24 25 24 24 25 26 25 22
23 24 23 23 24 25 25 24 25 26 28 25 25 25 25 25 25 25 25 25 25 25 25 26 26 26 27 26 23 20 24 24 24 25 24 24 25 23
24 23 24 24 24 23 24 24 26 27 26 25 25 26 26 25 26 25 25 25 25 26 26 26 26 26 26 26 25 23 20 23 24 24 24 23 22 19
24 23 24 24 24 25 25 25 25 25 25 26 26 27 27 26 26 25 25 27 28 27 26 26 25 24 25 26 27 26 24 21 21 23 23 25 25 23
23 22 23 24 24 24 24 25 26 27 27 27 26 26 26 27 26 27 27 26 26 25 24 23 24 25 26 26 26 27 26 25 24 21 20 19 21 24
23 23 24 24 25 25 25 26 26 25 26 26 26 27 27 27 26 25 25 25 24 25 25 25 25 24 25 26 26 27 28 27 26 26 24 18 16 15

GFSNE_con_lsi_285.txt.gz
Lid_Strength_Index
8 8 7 7 5 4 3 3 4 7 10 13 13 10 8 6 6 6 4 7 5 3 3 3 3 2 2 2 2 2 2 3 4 4 5 6 6 7
9 9 8 7 6 5 4 3 3 5 7 5 10 13 11 14 12 10 9 10 7 5 4 3 3 3 3 2 2 2 2 4 5 5 6 7 7 7
8 9 9 8 7 6 4 3 3 4 6 12 12 13 14 15 15 15 13 12 10 8 6 5 4 4 3 3 3 3 4 5 6 7 7 8 8 8
8 9 9 8 8 6 6 5 4 4 7 11 13 14 15 16 16 16 16 15 13 10 8 6 5 5 4 5 5 5 6 7 8 8 8 8 9 9
9 10 9 8 9 7 6 6 4 4 6 11 13 13 16 15 15 15 14 16 15 10 7 7 7 7 7 7 8 8 9 9 9 9 10 10 10 11
9 9 9 9 9 8 6 6 7 5 9 9 12 13 14 14 14 15 16 17 16 15 13 12 11 10 10 10 11 12 11 11 11 12 12 12 12 12
9 10 10 9 8 7 6 7 7 6 7 9 12 14 14 15 14 15 19 18 19 16 16 16 16 16 15 14 15 14 13 13 13 13 13 13 13 13
10 9 9 9 9 7 7 7 7 6 8 9 11 11 14 14 15 16 18 17 20 17 19 21 18 19 17 16 14 14 13 13 13 13 13 13 13 13
11 10 10 9 9 9 8 7 8 7 7 8 11 12 15 15 16 17 16 17 21 20 19 22 20 21 19 16 14 14 14 14 14 14 14 14 14 14
12 11 11 11 10 10 12 12 13 12 12 12 11 13 13 14 15 15 18 21 21 21 19 23 22 22 21 21 15 14 14 14 14 14 14 14 12 14
13 12 12 12 11 11 12 14 14 13 11 11 11 11 12 13 15 17 19 19 21 21 21 22 23 23 22 22 20 16 15 15 15 14 14 13 12 13
13 13 12 12 11 12 13 14 16 15 14 15 15 14 14 14 13 15 16 18 21 22 21 23 23 23 24 22 21 20 19 14 13 13 13 12 13 18
15 14 13 12 12 13 13 15 16 15 16 18 18 18 19 19 20 20 19 18 18 21 21 22 22 23 21 25 22 21 20 19 19 18 13 13 15 17
16 15 14 13 14 14 15 15 15 17 18 19 19 20 21 22 22 23 23 23 22 21 20 20 22 21 21 22 24 23 22 21 20 21 20 19 18 17
15 15 15 15 16 16 15 15 17 17 18 20 22 23 23 23 23 23 23 22 23 22 22 21 20 20 19 20 23 23 24 23 22 22 22 22 22 22
16 17 15 15 16 17 18 18 19 18 19 21 22 22 21 20 20 20 21 21 22 23 23 22 22 21 22 23 22 24 23 25 24 23 23 23 22 22
17 17 18 18 19 19 20 19 19 19 20 20 21 21 21 21 22 21 22 21 22 24 24 24 24 24 24 23 24 23 24 25 23 24 25 26 23 22
17 18 19 20 20 20 21 21 20 21 20 20 20 21 21 22 23 22 21 21 22 23 24 25 25 25 25 24 21 24 24 24 24 26 25 27 26 24
17 18 19 19 20 20 20 20 22 23 22 21 21 21 21 22 22 23 23 23 23 24 23 24 25 25 26 27 25 19 24 25 26 26 25 25 26 25
18 19 20 19 20 20 21 22 23 23 22 22 23 23 24 24 24 24 24 24 23 24 26 25 25 25 26 25 26 24 18 25 25 27 27 26 24 19
17 18 18 19 20 20 21 21 22 22 22 23 23 24 23 23 23 23 23 25 24 25 26 25 23 22 26 27 29 28 26 19 22 26 27 27 29 29
18 17 18 19 19 20 20 21 22 23 23 23 23 24 24 24 24 25 25 26 27 25 25 24 26 26 27 27 28 28 28 26 23 21 20 21 27 30
16 17 17 17 17 17 17 19 21 21 22 23 23 23 24 25 25 24 25 27 26 27 26 24 24 25 26 27 28 28 29 29 28 29 29 20 19 18

GFSNE_con_lsi_288.txt.gz
Lid_Strength_Index
9 9 9 9 8 7 7 7 6 9 8 9 8 9 5 7 5 3 2 6 4 3 3 2 2 2 2 2 1 1 1 1 1 2 2 2 3 3
10 10 9 9 9 8 7 7 6 6 8 8 9 11 9 11 10 9 7 8 6 5 4 3 3 3 2 2 1 1 1 1 1 1 2 3 3 4
10 10 10 9 9 9 8 7 7 6 7 8 11 12 12 12 12 12 12 12 11 8 6 4 3 3 3 2 2 2 2 1 1 2 3 3 4 6
11 10 10 10 10 10 9 8 7 6 7 8 12 12 12 12 12 12 15 14 14 11 8 7 6 5 4 3 3 3 3 3 3 4 5 6 7 7
11 10 10 10 10 9 9 8 7 7 6 9 10 12 12 12 12 12 13 15 15 13 10 8 7 7 6 5 4 4 5 5 6 7 8 8 8 8
10 10 10 9 9 9 9 9 8 7 8 9 11 12 12 12 12 13 13 14 14 14 13 12 10 8 7 8 9 10 9 9 9 9 10 10 10 10
11 11 10 9 9 9 9 8 8 9 9 8 11 12 13 12 12 12 16 15 16 16 16 16 15 15 14 12 12 11 11 11 11 12 13 12 12 12
12 11 10 10 9 9 8 7 7 9 9 9 9 11 12 12 12 13 14 15 17 16 18 19 17 17 16 15 13 12 12 12 13 13 13 13 13 13
12 12 11 10 10 9 8 7 7 7 6 7 8 9 11 11 12 14 14 17 18 18 17 21 19 20 17 15 13 13 13 13 13 13 13 14 14 14
13 12 12 11 10 10 10 11 11 11 9 9 8 10 11 11 12 12 16 18 18 19 18 21 20 22 19 17 13 13 13 13 13 14 14 14 14 14
13 12 12 12 11 9 12 12 12 12 9 9 9 10 10 11 13 14 16 16 18 20 20 21 22 22 21 21 19 13 14 14 14 14 14 13 13 13
14 13 12 12 11 11 13 13 15 15 14 13 13 13 13 12 12 13 14 16 19 19 19 21 22 21 23 23 22 21 20 16 15 14 14 14 13 18
14 14 14 12 12 13 13 15 15 15 16 17 18 18 19 18 19 18 16 16 18 19 19 19 21 21 23 26 24 23 21 20 20 18 14 13 12 17
16 15 14 12 12 13 15 14 15 16 18 19 20 21 21 22 22 22 21 21 20 20 19 20 21 22 24 25 25 24 23 22 21 21 21 15 13 15
15 14 14 14 15 15 14 15 16 18 19 21 23 23 23 22 22 22 23 23 24 24 23 22 20 21 20 22 26 24 24 24 22 22 22 22 22 22
17 19 16 16 15 17 19 19 20 20 21 21 22 21 21 22 22 22 22 22 23 25 23 22 22 21 23 23 24 24 24 26 25 24 23 24 23 22
23 23 21 22 21 21 21 21 21 20 21 21 21 22 22 22 22 22 22 23 24 25 25 24 24 24 24 24 26 25 26 26 25 26 26 27 25 23
24 26 24 24 24 26 26 25 24 23 23 23 23 23 23 23 23 23 22 23 23 25 26 26 26 25 24 23 20 25 26 25 25 27 26 29 29 27
26 27 27 27 27 27 28 29 29 29 29 26 26 26 26 27 27 26 24 23 25 27 27 27 28 28 29 28 26 19 25 28 29 30 28 28 30 28
26 27 28 28 28 28 29 30 30 29 29 28 28 29 30 28 29 29 28 29 28 30 31 31 30 30 29 27 29 27 18 28 30 31 30 30 26 19
25 26 27 27 27 28 29 29 30 30 30 30 30 30 30 30 30 30 29 28 29 32 32 31 28 25 29 31 30 29 27 18 22 29 33 31 32 33
25 25 25 25 26 26 27 28 29 30 30 30 30 30 30 30 30 30 30 31 32 31 30 30 30 30 31 29 30 29 28 27 22 20 19 21 28 32
19 22 17 17 18 18 23 26 28 28 29 29 30 30 31 31 31 30 31 32 32 32 31 32 29 28 28 27 28 29 29 29 29 29 29 20 19 18

GFSNE_con_lsi_291.txt.gz
Lid_Strength_Index
10 10 10 9 9 9 8 8 10 12 11 9 7 8 8 5 4 6 3 5 4 2 2 2 2 1 1 1 0 0 -0 0 1 1 1 1 1 1
11 11 10 10 9 9 9 8 9 10 11 8 8 10 10 10 9 8 8 9 8 5 3 3 2 2 2 2 1 1 1 0 1 1 1 1 1 1
11 11 10 9 10 9 9 9 9 9 10 9 10 12 11 11 11 11 10 9 10 9 7 6 4 3 2 2 2 1 1 1 1 1 1 1 1 1
12 11 11 10 10 10 9 10 10 10 11 11 10 12 11 12 12 11 12 13 11 11 9 8 7 6 6 5 3 3 3 2 2 2 2 1 1 2
12 12 11 11 10 10 9 10 10 9 10 9 10 11 11 12 12 11 12 12 13 10 10 9 8 7 7 7 6 6 5 4 4 4 3 3 3 4
12 12 11 10 10 10 10 10 9 9 10 9 9 10 11 12 12 12 12 13 13 13 12 11 11 11 8 7 7 8 8 6 5 5 5 6 7 7
12 12 11 11 10 9 9 10 10 10 9 9 9 11 12 12 12 12 13 13 14 14 14 15 13 14 14 12 11 9 8 7 8 9 9 9 9 9
13 12 12 11 10 9 8 8 9 10 10 9 9 9 9 11 12 12 13 13 14 14 16 17 15 14 14 12 10 9 10 10 11 11 11 11 11 11
13 13 12 11 11 10 9 8 8 8 7 8 9 9 9 10 11 12 13 16 16 16 16 18 18 18 15 13 11 12 12 12 12 12 12 12 12 12
13 13 13 12 11 11 11 11 10 10 9 8 8 8 9 9 10 11 13 16 15 18 17 19 19 19 17 16 12 12 12 13 13 13 13 13 13 13
13 13 13 13 11 10 11 12 12 11 9 8 8 8 8 9 11 12 14 14 17 19 18 19 20 20 19 20 18 12 12 12 12 13 13 13 13 13
14 13 12 12 12 12 14 14 16 16 15 16 15 15 14 13 12 12 12 14 17 17 18 20 20 19 20 21 21 20 16 13 13 12 13 13 13 17
16 16 13 12 12 13 13 16 16 17 17 18 18 18 19 19 19 18 18 15 17 19 17 18 19 20 22 23 22 21 20 20 19 16 14 14 14 16
16 15 14 13 12 13 14 13 14 17 18 19 19 20 21 21 21 21 21 21 20 19 18 18 19 20 22 23 23 22 22 21 20 20 20 15 13 15
16 14 14 14 15 15 14 15 18 19 19 21 22 22 22 21 21 21 21 21 22 22 21 20 18 20 21 23 24 25 23 23 22 22 22 22 22 21
19 20 17 17 16 18 20 20 20 21 21 22 22 22 21 21 22 22 23 22 23 24 23 21 21 21 23 23 24 24 24 24 25 24 24 25 23 22
26 26 24 24 23 23 23 24 24 23 23 24 23 24 24 23 23 24 25 26 26 27 26 24 23 22 22 24 26 26 27 27 26 27 26 27 26 24
26 29 27 27 27 28 28 27 27 26 27 27 28 27 26 26 26 26 25 26 25 28 29 28 28 27 25 23 20 26 27 28 28 29 27 30 31 28
28 29 29 28 28 30 31 31 30 30 31 29 29 29 29 28 28 28 26 26 30 30 30 30 29 29 31 29 26 19 27 30 31 31 30 30 31 29
28 29 29 30 29 29 31 31 31 31 31 30 31 32 32 31 30 30 30 31 31 32 32 32 31 31 29 26 29 27 19 29 31 33 31 32 28 20
28 28 29 30 29 30 30 31 31 30 31 32 32 32 33 32 32 32 31 30 31 34 33 31 28 26 31 31 29 31 29 19 24 29 34 32 33 35
26 26 28 29 29 30 30 30 31 32 31 31 32 32 33 32 31 31 32 32 33 33 32 31 31 31 32 31 33 32 31 29 23 19 20 22 29 32
21 18 17 17 18 19 22 28 30 29 31 31 31 31 31 29 32 30 31 33 31 32 33 33 32 31 31 30 29 30 32 31 31 31 30 21 19 17

GFSNE_con_lsi_297.txt.gz
Lid_Strength_Index
12 12 12 11 11 10 10 10 12 14 13 11 10 9 8 8 8 8 7 6 6 4 4 3 1 1 2 3 2 2 1 1 0 0 0 0 1 1
12 12 12 11 11 11 10 10 10 11 13 10 12 13 11 10 9 10 8 8 7 5 5 4 3 1 2 3 3 3 2 2 0 0 0 1 0 1
12 12 12 12 12 11 11 10 9 9 11 11 10 10 12 12 11 10 10 10 9 8 6 5 4 4 2 3 4 3 3 3 1 0 1 1 1 1
13 12 12 12 12 11 11 11 10 10 11 11 10 10 11 11 11 11 11 12 12 9 7 7 6 5 5 4 4 5 5 5 4 3 2 1 1 1
12 12 12 12 12 12 11 11 11 10 10 11 11 10 10 10 10 11 11 11 12 11 10 9 8 7 6 6 5 6 7 6 6 6 4 3 2 2
12 11 11 11 11 12 12 12 11 11 10 11 11 11 10 9 10 10 11 12 12 12 11 11 10 9 7 6 7 8 8 7 7 7 7 6 5 3
13 12 12 12 11 11 11 12 11 11 11 12 11 11 11 10 11 10 11 12 13 13 13 13 12 11 10 8 8 7 8 8 7 7 8 8 7 6
14 13 12 12 11 10 10 10 10 11 11 11 12 11 11 10 10 10 11 12 13 13 14 14 14 14 12 9 7 7 6 8 8 8 8 8 8 7
15 14 13 12 12 12 11 10 10 10 9 10 11 10 10 9 9 9 11 12 14 15 14 16 15 15 15 10 7 8 8 10 10 10 10 10 10 11
16 14 13 13 12 12 12 12 12 12 12 12 12 10 9 8 9 9 11 14 15 15 15 17 16 17 15 15 8 8 8 9 9 10 11 11 11 11
17 16 14 12 12 11 14 13 14 14 13 13 12 12 11 9 8 11 13 13 15 16 15 16 17 17 16 17 16 9 9 9 10 10 11 11 12 12
19 18 14 12 12 12 17 16 20 17 16 17 17 16 16 16 14 13 11 12 15 16 16 16 18 18 17 17 18 18 13 10 10 11 11 12 12 14
19 17 15 13 12 12 12 14 15 18 16 17 18 18 19 19 19 19 17 13 15 16 15 16 18 19 19 19 19 19 18 16 14 13 12 12 13 14
20 19 17 14 14 13 14 14 14 17 17 18 19 21 21 20 20 19 20 20 19 17 16 15 17 18 19 20 20 20 20 19 18 17 14 12 13 13
18 16 15 15 16 19 15 16 20 21 22 22 21 24 22 20 19 20 18 18 20 20 19 17 16 17 18 20 20 21 19 21 20 19 19 19 19 18
20 22 18 18 17 19 22 22 22 23 24 25 26 25 24 23 22 21 21 22 21 21 21 19 19 19 21 21 20 22 22 21 22 22 22 23 22 22
27 27 26 26 25 24 25 25 25 25 25 27 27 27 26 26 25 26 26 25 23 23 23 22 21 21 22 22 24 24 25 25 24 25 26 26 25 24
27 28 27 28 28 29 29 28 29 29 28 28 29 29 29 28 29 27 26 27 25 27 25 25 25 24 25 22 21 27 28 29 27 27 28 29 30 29
29 30 29 29 29 30 32 32 30 31 34 31 31 30 30 30 30 30 28 28 30 31 31 32 31 30 31 32 28 19 28 32 32 31 30 30 31 30
31 31 30 31 31 31 31 31 32 33 32 32 32 33 33 31 31 32 32 33 33 34 32 33 31 33 30 27 30 28 21 30 33 35 32 34 29 21
28 29 29 29 29 31 33 33 34 33 33 34 34 34 34 33 33 34 33 32 33 35 33 31 30 28 32 33 28 30 29 20 25 30 34 33 35 35
27 28 30 31 31 32 33 34 33 33 33 34 34 34 33 32 32 33 33 31 33 33 32 31 31 31 30 28 33 33 30 28 21 19 19 23 29 32
24 25 25 20 20 23 27 31 31 30 31 32 32 33 35 31 33 31 33 34 32 33 33 30 31 29 31 31 29 31 31 30 28 26 26 20 19 19